Location: Karcze
(52.0945°N, 22.4786°E)
Time: 12:46:34
(UTC+00:00)

NPP - Pass Details

Date: 14 July 2020
Orbit: 826 x 828 km, 98.7° (Epoch: 07 August)

Event Time Altitude Azimuth Distance (km) Brightness Sun altitude
Rises 01:15:55 0° 11° (NNE) 3,380 8.2 -8.4°
Reaches altitude 10° 01:18:21 10° 6° (N) 2,442 7.1 -8.2°
Maximum altitude 01:23:28 45° 295° (WNW) 1,118 4.3 -7.7°
Drops below altitude 10° 01:28:33 10° 224° (SW) 2,426 5.4 -7.2°
Enters shadow 01:28:50 - 223° (SW) 2,535 5.5 -7.2°
